Location: Glencliff
(36.1226°N, 86.7183°W)
Time: 07:29:13
(UTC+00:00)

SL-24 R/B - Pass Details

Date: 25 August 2019
Orbit: 717 x 1116 km, 91.9° (Epoch: 20 September)

Event Time Altitude Azimuth Distance (km) Brightness Sun altitude
Exits shadow 01:54:22 23° 157° (SSE) 1,481 5.6 -17.5°
Maximum altitude 01:57:15 64° 82° (E) 797 4.3 -18.0°
Drops below altitude 10° 02:02:06 10° 2° (N) 2,251 7.3 -18.9°
Sets 02:04:28 0° 359° (N) 3,211 8.2 -19.3°
